Location: Unspecified
(0.0000°N, 0.0000°E)
Time: 14:35:05
(UTC+00:00)

STARLINK-4346 - Pass Details

Date: 31 October 2025
Orbit: 499 x 508 km, 97.6° (Epoch: 29 March)

Event Time Altitude Azimuth Distance (km) Brightness Sun altitude
Rises 17:46:52 0° 6° (N) 2,621 6.9 -0.8°
Reaches altitude 10° 17:48:58 10° 3° (N) 1,735 6.0 -1.3°
Maximum altitude 17:52:41 64° 282° (WNW) 571 4.1 -2.2°
Drops below altitude 10° 17:56:23 10° 199° (SSW) 1,734 6.7 -3.1°
Sets 17:58:29 0° 196° (SSW) 2,618 7.5 -3.6°
